INFOJET
Metar trends

METAR/TAF(Classic format)(METAR/TAF Trend/History displayed directly below)
(enter CONUS apts starting with a K(eg. KMCC), enter Alaska/Hawaii apts starting with a P(eg. PANC))

Get Apt METAR code for recent obs


Get Apt METAR code for recent obs + Direct NWS Link (if METAR history doesn't display (which is often)


FAA Surface Weather Observation Stations ASOS/AWOS Readings with Map


NOAA ASOS Recent Observation History (click to select airport code)






TVL METAR history (last 5 updates)

FTUS45 KREV 271922 RRA
 TAFTVL
 TAF
 KTVL 271922Z 2719/2818 03007KT P6SM FEW180
      FM280200 VRB03KT P6SM SKC=

Recent Observations METAR KTVL 272015Z AUTO 02006KT 10SM CLR 12/M05 A3039 METAR KTVL 272010Z AUTO 00000KT 10SM CLR 12/M05 A3039 METAR KTVL 272005Z AUTO 02004KT 10SM CLR 12/M04 A3039 METAR KTVL 272000Z AUTO 00000KT 10SM CLR 11/M05 A3040 METAR KTVL 271955Z AUTO 35003KT 10SM CLR 11/M04 A3040




AvnWthrCntr_BCAWS

ADDS - METARS form results

Aviation Digital Data Service (ADDS)

Output produced by METARs form (2026 UTC 27 February 2020)
found at http://bcaws.aviationweather.gov/metar/data/
 
KTVL 271953Z AUTO VRB03KT 10SM CLR 11/M04 A3040 RMK AO2 SLP282 T01111044
KTVL 271853Z AUTO VRB03KT 10SM CLR 10/M03 A3041 RMK AO2 SLP287 T01001028
KTVL 271753Z AUTO 07003KT 10SM CLR 08/M06 A3042 RMK AO2 SLP290 T00781061 10078 21061 50002
KTVL 271653Z AUTO 00000KT 10SM CLR 02/M04 A3042 RMK AO2 SLP302 T00171039
KTVL 271553Z AUTO 18003KT 7SM CLR M04/M06 A3042 RMK AO2 SLP312 T10391061
KTVL 271453Z AUTO 18003KT 10SM CLR M06/M08 A3041 RMK AO2 SLP308 T10611078 50003
KTVL 271922Z 2719/2818 03007KT P6SM FEW180 
     FM280200 VRB03KT P6SM SKC
       




5 min APT wthr

CWSU Observations






RELOAD current METAR trend





METAR Numeric Codes (usually listed after RMK)

1xxxxx___6-hr maximum temp(2nd digit=0 is positive, 1 is negative)(eg. 10405 = +40.5 degrees Celsius)

2xxxxx___6-hr minimum temp (eg. 21337 = -33.7 degrees Celsius)

4/xxx___Total snow depth in inches (eg. 4/020 = snow depth of 20 inches on ground)

4xxxxxxxx___24-hr maximum/minimum temperatures, 2nd and sixth digits equal 0 for positive and 1 for negative (eg. 401551095 = 24-hr maximum temp of +15.5 degrees Celsius and a 24-hr minimum temp of -9.5 degrees Celsius)

5xxxx___3 hour pressure tendency. The second digit gives the tendency/trend: 0–3 is rising, 4 is steady and 5–8 is falling , the last 3 digits give the pressure change in tenths of a millibar in the last 3 hours. (eg 50009 indicates a rising pressure tendency/trend of 0.9 millibars.)

6xxxx___3 or 6 hour precipitation amount. The last 4 digits are the inches of rain in hundredths. (eg. 60200 = 2 inches of rain)

7xxxx___24-hour precipitation amount. The last 4 digits are the inches of rain in hundredths. (eg. 70500 = 5 inches of rain)

8/xxx___Cloud cover using WMO code. Three digit code follows the /. Lower numbers are for clearer skies, high numbers are for overcast. (I have not seen this in the NorCal airport METARs yet).

98xxx___Duration of sunshine in minutes. The last three digits after 98 are minutes. (eg. 98120 = 120 minutes of sunshine)

931xxx___Snowfall in the last 6-hours. The last three digits display snowfall in inches and tenths. (eg. 931515 = 51.5 inches of snowfall)

933xxx___Liquid water equivalent of the snow (SWE). The last three digits display liquid water equivalent of snow in inches and tenths (eg. 933055 = 5.5 inches of liquid water in snow)


Other METAR codes
SLP155 = current barometric pressure extrapolated to sea level (SLP155 equals 1015.5 hPa)

Pxxxx = liquid-equivalent precipitation accumulated during the last hour to hundredths of inches (P0050 = .5 inch of rain in the past hour)

Txxxxxxxx is the current Temperature and Dew point. The first 4 digits are temperature. The second 4 digits are Dew Point. The first digit of each group is either 0 for above zero Celsius or 1 for below zero Celsius. (eq. T00251015 = Temp +2.5C, Dew Pt -1.5C)







KSAC





KSMF





KMHR





KMCC





KEDU





KBLU





KTRK





KTVL





KRNO





KCEC





KPDX





KSEA





William R Fairchild International (Port Angeles, WA Intl Apt) (KCLM)